| time (UTC) | temp F | wind direction | speed MPH | gust MPH | rain 1hr in | rain 24hr in | rain mn in | humidity % | barometer mb |
| 20260510023042 | 68 | 0 | 0.0 | 1.0 | 0.00 | 0.01 | 0.01 | 60 | 1011.2 |
| 20260510021539 | 68 | 0 | 0.0 | 2.0 | 0.00 | 0.01 | 0.01 | 59 | 1010.9 |
| 20260510020035 | 69 | 0 | 0.0 | 3.0 | 0.00 | 0.01 | 0.01 | 57 | 1010.5 |
| 20260510014534 | 70 | 0 | 0.0 | 4.0 | 0.00 | 0.01 | 0.01 | 57 | 1010.4 |
| 20260510013034 | 70 | 352 | 0.0 | 4.0 | 0.00 | 0.01 | 0.01 | 56 | 1010.1 |
| 20260510011534 | 70 | 0 | 0.0 | 1.0 | 0.00 | 0.01 | 0.01 | 56 | 1009.9 |
| 20260510010041 | 71 | 0 | 0.0 | 2.0 | 0.00 | 0.01 | 0.01 | 55 | 1009.7 |
| 20260510004536 | 73 | 18 | 1.0 | 4.0 | 0.00 | 0.01 | 0.01 | 52 | 1009.5 |
| 20260510003035 | 74 | 345 | 0.0 | 3.0 | 0.00 | 0.01 | 0.01 | 52 | 1009.2 |
| 20260510001541 | 75 | 17 | 1.0 | 4.0 | 0.00 | 0.01 | 0.01 | 51 | 1008.9 |
| 20260510000044 | 75 | 304 | 2.0 | 6.0 | 0.00 | 0.01 | 0.01 | 48 | 1008.9 |
| 20260509234544 | 76 | 307 | 2.0 | 6.0 | 0.00 | 0.01 | 0.01 | 46 | 1008.8 |
| 20260509233040 | 80 | 296 | 0.0 | 5.0 | 0.00 | 0.01 | 0.01 | 41 | 1008.5 |
| 20260509231541 | 80 | 269 | 0.0 | 6.0 | 0.00 | 0.01 | 0.01 | 38 | 1008.3 |
| 20260509230050 | 81 | 294 | 0.0 | 5.0 | 0.00 | 0.01 | 0.01 | 39 | 1008.1 |
| 20260509224552 | 82 | 290 | 2.0 | 6.0 | 0.00 | 0.01 | 0.01 | 36 | 1008.0 |
| 20260509223047 | 82 | 290 | 1.0 | 8.0 | 0.00 | 0.01 | 0.01 | 37 | 1007.9 |
| 20260509221537 | 83 | 311 | 2.0 | 6.0 | 0.00 | 0.01 | 0.01 | 35 | 1007.8 |
| 20260509220036 | 83 | 316 | 2.0 | 6.0 | 0.00 | 0.01 | 0.01 | 37 | 1007.7 |
| 20260509214543 | 84 | 329 | 1.0 | 5.0 | 0.00 | 0.02 | 0.01 | 39 | 1007.8 |
| 20260509213043 | 85 | 214 | 2.0 | 6.0 | 0.00 | 0.02 | 0.01 | 36 | 1007.7 |
| 20260509211541 | 84 | 346 | 1.0 | 9.0 | 0.00 | 0.02 | 0.01 | 39 | 1007.7 |
| 20260509210047 | 85 | 311 | 2.0 | 7.0 | 0.00 | 0.02 | 0.01 | 37 | 1007.7 |
| 20260509204536 | 85 | 176 | 1.0 | 6.0 | 0.00 | 0.02 | 0.01 | 38 | 1007.9 |
| 20260509203048 | 85 | 39 | 3.0 | 7.0 | 0.00 | 0.02 | 0.01 | 38 | 1008.1 |
| 20260509201543 | 86 | 156 | 1.0 | 5.0 | 0.00 | 0.02 | 0.01 | 40 | 1008.2 |
| 20260509200041 | 86 | 21 | 1.0 | 5.0 | 0.00 | 0.02 | 0.01 | 38 | 1008.2 |
| 20260509194541 | 85 | 1 | 0.0 | 7.0 | 0.00 | 0.02 | 0.01 | 45 | 1008.5 |
| 20260509193040 | 85 | 229 | 2.0 | 7.0 | 0.00 | 0.02 | 0.01 | 40 | 1008.5 |
| 20260509191537 | 84 | 326 | 3.0 | 11.0 | 0.00 | 0.02 | 0.01 | 40 | 1008.7 |
| 20260509190034 | 85 | 25 | 2.0 | 8.0 | 0.00 | 0.02 | 0.01 | 42 | 1008.8 |
| 20260509184547 | 84 | 142 | 2.0 | 8.0 | 0.00 | 0.02 | 0.01 | 46 | 1008.9 |
| 20260509183042 | 84 | 145 | 2.0 | 6.0 | 0.00 | 0.02 | 0.01 | 44 | 1008.9 |
| 20260509181600 | 83 | 89 | 1.0 | 4.0 | 0.00 | 0.02 | 0.01 | 48 | 1009.1 |
| 20260509180107 | 83 | 191 | 1.0 | 4.0 | 0.00 | 0.02 | 0.01 | 48 | 1009.1 |
| 20260509174535 | 82 | 192 | 1.0 | 5.0 | 0.00 | 0.02 | 0.01 | 50 | 1009.3 |
| 20260509173042 | 81 | 60 | 1.0 | 4.0 | 0.00 | 0.02 | 0.01 | 47 | 1009.5 |
| 20260509171549 | 81 | 170 | 1.0 | 6.0 | 0.00 | 0.02 | 0.01 | 50 | 1009.7 |
| 20260509170049 | 80 | 134 | 1.0 | 5.0 | 0.00 | 0.02 | 0.01 | 47 | 1009.8 |
| 20260509164540 | 79 | 207 | 1.0 | 8.0 | 0.00 | 0.02 | 0.01 | 50 | 1009.8 |
| 20260509163038 | 78 | 356 | 1.0 | 5.0 | 0.00 | 0.02 | 0.01 | 52 | 1009.9 |
| 20260509161555 | 77 | 125 | 0.0 | 5.0 | 0.00 | 0.02 | 0.01 | 52 | 1009.8 |
| 20260509160043 | 76 | 0 | 1.0 | 4.0 | 0.00 | 0.02 | 0.01 | 53 | 1009.7 |
| 20260509154541 | 75 | 248 | 1.0 | 6.0 | 0.00 | 0.02 | 0.01 | 55 | 1009.8 |
| 20260509153041 | 74 | 175 | 1.0 | 5.0 | 0.00 | 0.02 | 0.01 | 57 | 1009.7 |
| 20260509151542 | 73 | 304 | 1.0 | 5.0 | 0.00 | 0.02 | 0.01 | 58 | 1009.7 |
| 20260509150036 | 72 | 323 | 2.0 | 7.0 | 0.00 | 0.02 | 0.01 | 60 | 1009.7 |
| 20260509144535 | 71 | 170 | 1.0 | 5.0 | 0.00 | 0.02 | 0.01 | 63 | 1009.7 |
| 20260509143042 | 69 | 271 | 1.0 | 5.0 | 0.00 | 0.02 | 0.01 | 65 | 1009.6 |
| 20260509141546 | 68 | 0 | 1.0 | 3.0 | 0.00 | 0.02 | 0.01 | 69 | 1009.6 |
| 20260509140041 | 66 | 105 | 1.0 | 7.0 | 0.00 | 0.02 | 0.01 | 71 | 1009.6 |
| 20260509134536 | 64 | 340 | 1.0 | 5.0 | 0.00 | 0.02 | 0.01 | 75 | 1009.5 |
| 20260509133051 | 61 | 62 | 0.0 | 5.0 | 0.00 | 0.02 | 0.01 | 81 | 1009.7 |
| 20260509131541 | 58 | 217 | 0.0 | 4.0 | 0.00 | 0.02 | 0.01 | 89 | 1009.7 |
| 20260509130040 | 55 | 161 | 0.0 | 3.0 | 0.00 | 0.02 | 0.01 | 97 | 1009.5 |
| 20260509124544 | 54 | 0 | 0.0 | 3.0 | 0.00 | 0.02 | 0.01 | 98 | 1009.2 |
| 20260509123041 | 53 | 0 | 0.0 | 1.0 | 0.00 | 0.02 | 0.01 | 98 | 1009.2 |
| 20260509121536 | 52 | 0 | 0.0 | 2.0 | 0.00 | 0.02 | 0.01 | 98 | 1009.0 |
| 20260509120041 | 52 | 0 | 0.0 | 0.0 | 0.00 | 0.02 | 0.01 | 98 | 1008.9 |
| 20260509114541 | 52 | 0 | 0.0 | 1.0 | 0.00 | 0.02 | 0.01 | 98 | 1008.9 |
| 20260509113038 | 51 | 105 | 0.0 | 0.0 | 0.00 | 0.02 | 0.01 | 98 | 1008.6 |
| 20260509111536 | 51 | 0 | 0.0 | 1.0 | 0.00 | 0.02 | 0.01 | 98 | 1008.5 |
| 20260509110036 | 52 | 0 | 0.0 | 1.0 | 0.00 | 0.02 | 0.01 | 98 | 1008.3 |
| 20260509104546 | 52 | 189 | 0.0 | 1.0 | 0.01 | 0.02 | 0.01 | 98 | 1008.3 |
| 20260509103038 | 52 | 0 | 0.0 | 1.0 | 0.01 | 0.02 | 0.01 | 98 | 1008.3 |
| 20260509101542 | 52 | 0 | 0.0 | 0.0 | 0.01 | 0.02 | 0.01 | 98 | 1008.5 |
| 20260509100041 | 53 | 0 | 0.0 | 1.0 | 0.01 | 0.02 | 0.01 | 98 | 1008.5 |
| 20260509094536 | 52 | 0 | 0.0 | 0.0 | 0.00 | 0.01 | 0.00 | 98 | 1008.7 |
| 20260509093035 | 52 | 0 | 0.0 | 0.0 | 0.00 | 0.01 | 0.00 | 98 | 1008.6 |
| 20260509091540 | 53 | 0 | 0.0 | 0.0 | 0.00 | 0.01 | 0.00 | 98 | 1008.7 |
| 20260509090047 | 53 | 202 | 0.0 | 2.0 | 0.00 | 0.01 | 0.00 | 98 | 1008.5 |
| 20260509084540 | 53 | 0 | 0.0 | 1.0 | 0.00 | 0.01 | 0.00 | 98 | 1008.4 |
| 20260509083034 | 53 | 197 | 0.0 | 2.0 | 0.00 | 0.01 | 0.00 | 98 | 1008.5 |
| 20260509081550 | 54 | 0 | 0.0 | 2.0 | 0.00 | 0.01 | 0.00 | 98 | 1008.5 |
| 20260509080043 | 54 | 174 | 0.0 | 2.0 | 0.00 | 0.01 | 0.00 | 98 | 1008.5 |
| 20260509074541 | 54 | 181 | 0.0 | 2.0 | 0.00 | 0.01 | 0.00 | 98 | 1008.5 |
| 20260509073045 | 53 | 0 | 0.0 | 1.0 | 0.00 | 0.01 | 0.00 | 98 | 1008.6 |
| 20260509071545 | 53 | 144 | 0.0 | 2.0 | 0.00 | 0.01 | 0.00 | 98 | 1008.7 |
| 20260509070042 | 52 | 115 | 0.0 | 0.0 | 0.00 | 0.01 | 0.00 | 98 | 1008.8 |
| 20260509064542 | 51 | 0 | 0.0 | 1.0 | 0.00 | 0.01 | 0.00 | 98 | 1008.8 |
| 20260509063059 | 50 | 0 | 0.0 | 0.0 | 0.00 | 0.01 | 0.00 | 97 | 1009.0 |
| 20260509061557 | 50 | 0 | 0.0 | 0.0 | 0.00 | 0.01 | 0.00 | 97 | 1009.1 |
| 20260509060051 | 51 | 0 | 0.0 | 0.0 | 0.00 | 0.01 | 0.00 | 97 | 1009.0 |
| 20260509054542 | 51 | 0 | 0.0 | 0.0 | 0.00 | 0.01 | 0.00 | 97 | 1009.1 |
| 20260509053043 | 51 | 0 | 0.0 | 0.0 | 0.00 | 0.01 | 0.00 | 97 | 1009.2 |
| 20260509051541 | 52 | 0 | 0.0 | 0.0 | 0.00 | 0.01 | 0.00 | 97 | 1009.1 |
| 20260509050042 | 52 | 0 | 0.0 | 0.0 | 0.00 | 0.01 | 0.00 | 97 | 1009.1 |
| 20260509044541 | 52 | 0 | 0.0 | 0.0 | 0.00 | 0.01 | 0.01 | 97 | 1009.0 |
| 20260509043042 | 52 | 0 | 0.0 | 0.0 | 0.00 | 0.01 | 0.01 | 97 | 1009.1 |
| 20260509041541 | 52 | 0 | 0.0 | 0.0 | 0.00 | 0.01 | 0.01 | 97 | 1009.2 |
| 20260509040040 | 53 | 0 | 0.0 | 0.0 | 0.00 | 0.01 | 0.01 | 97 | 1009.4 |
| 20260509034537 | 52 | 0 | 0.0 | 1.0 | 0.00 | 0.01 | 0.01 | 96 | 1009.3 |
| 20260509033043 | 52 | 0 | 0.0 | 0.0 | 0.00 | 0.01 | 0.01 | 96 | 1009.4 |
| 20260509031544 | 53 | 0 | 0.0 | 0.0 | 0.00 | 0.01 | 0.01 | 96 | 1009.4 |
| 20260509030047 | 53 | 0 | 0.0 | 0.0 | 0.00 | 0.01 | 0.01 | 96 | 1009.2 |
| 20260509024539 | 54 | 0 | 0.0 | 0.0 | 0.00 | 0.01 | 0.01 | 96 | 1009.1 |